Location: Buckeye Ditch
(40.9104°N, 122.9517°W)
Time: 00:26:19
(UTC+00:00)

FENGYUN 1C DEB - Visible Passes

Search period start: 16 September 2024 00:00
Search period end: 26 September 2024 00:00
Orbit: 850 x 986 km, 99.3° (Epoch: 14 September)

Date Brightness Start Highest point End Pass type
(mag) Time Alt. Az. Time Alt. Az. Time Alt. Az.
16 Sep ? 03:09:11 12° E 03:12:01 17° ENE 03:15:37 10° NNE visible
16 Sep ? 04:52:38 64° SSW 04:53:21 73° WSW 04:59:08 10° NNW visible
17 Sep ? 03:17:23 15° E 03:19:52 20° ENE 03:23:53 10° NNE visible
17 Sep ? 05:00:50 60° SW 05:01:18 62° WSW 05:07:04 10° NNW visible
18 Sep ? 03:25:35 19° E 03:27:43 23° ENE 03:32:07 10° NNE visible
18 Sep ? 05:09:01 53° WSW 05:09:17 53° W 05:14:58 10° NNW visible
19 Sep ? 03:33:47 22° E 03:35:33 26° ENE 03:40:17 10° N visible
19 Sep ? 05:17:13 46° W 05:17:16 46° W 05:22:51 10° NNW visible
20 Sep ? 03:41:58 27° E 03:43:25 30° ENE 03:48:25 10° N visible
20 Sep ? 05:25:24 39° W 05:25:24 39° W 05:30:42 10° NNW visible
21 Sep ? 03:50:09 32° E 03:51:18 35° ENE 03:56:32 10° N visible
21 Sep ? 05:33:36 33° W 05:33:36 33° W 05:38:31 10° NNW visible
22 Sep ? 03:58:20 38° E 03:59:10 40° ENE 04:04:37 10° N visible
22 Sep ? 05:41:47 28° W 05:41:47 28° W 05:46:18 10° NW visible
23 Sep ? 04:06:31 45° E 04:07:04 47° ENE 04:12:41 10° N visible
23 Sep ? 05:49:59 24° W 05:49:59 24° W 05:54:02 10° NW visible
24 Sep ? 04:14:43 54° E 04:14:57 54° ENE 04:20:43 10° N visible
24 Sep ? 05:58:09 21° W 05:58:09 21° W 06:01:42 10° NW visible
25 Sep ? 04:22:54 63° ENE 04:22:54 63° ENE 04:28:43 10° N visible
25 Sep ? 06:06:20 18° WNW 06:06:20 18° WNW 06:09:19 10° NW visible
